Weather History for Bellefontaine, OH

Change the Weather History Date:

Saturday, July 20, 2013

  Actual Average (KDAY) Record (KDAY)
Temperature  
Mean Temperature 72 °F 74 °F  
Max Temperature 78 °F 84 °F 101 °F (1934)
Min Temperature 66 °F 65 °F 49 °F (1947)
Degree Days  
Heating Degree Days 0 0  
Month to date heating degree days 0  
Since 1 June heating degree days 22  
Since 1 July heating degree days 0  
Cooling Degree Days 7 9  
Month to date cooling degree days 180  
Year to date cooling degree days 440  
Since 1 June cooling degree days 370  
Growing Degree Days 22 (Base 50)    
Moisture  
Dew Point 71 °F    
Average Humidity 92    
Maximum Humidity 100    
Minimum Humidity 74    
Precipitation  
Precipitation 0.58 in 0.12 in 2.46 in (1969)
Month to date precipitation 2.78  
Year to date precipitation 23.99  
Snow  
Snow 0.00 in 0.00 in 0.00 in ()
Month to date snowfall 0.0  
Since 1 June snowfall 0.0  
Since 1 July snowfall 0.0  
Snow Depth -    
Sea Level Pressure  
Sea Level Pressure 29.89 in    
Wind  
Wind Speed 7 mph (SSW)    
Max Wind Speed 14 mph    
Max Gust Speed 16 mph    
Visibility 9 miles    
Events      
T = Trace of Precipitation, MM = Missing Value Source: NWS Daily Summary

Daily Weather History Graph

Daily Weather History Graph

Search for Another Location

Airport:

Trip Planner

Search our weather history database for the weather conditions in past years. The results will help you decide how hot, cold, wet, or windy it might be!

Date:

Astronomy

Jul. 20, 2013 Rise Set
Actual Time 6:22 AM EDT 9:00 PM EDT
Civil Twilight 5:50 AM EDT 9:32 PM EDT
Nautical Twilight 5:11 AM EDT 10:11 PM EDT
Astronomical Twilight 4:26 AM EDT 10:56 PM EDT
Moon 7:03 PM EDT (7/20) 4:01 AM EDT (7/20)
Length of Visible Light 15h 41m
Length of Day
14h 38m
Waxing Gibbous, 93% of the Moon is Illuminated
Jul 20
Waxing Gibbous
Jul 22
Full
Jul 29
Last Quarter
Aug 6
New
Aug 14
First Quarter

Hourly Weather History & Observations

Time (EDT) Temp. Dew Point Humidity Pressure Visibility Wind Dir Wind Speed Gust Speed Precip Events Conditions
12:15 AM 75.2 °F 73.4 °F 94% 29.90 in 7.0 mi SSW 8.1 mph - 0.00 in   Clear
12:35 AM 75.2 °F 73.4 °F 94% 29.90 in 8.0 mi SSW 8.1 mph - 0.00 in   Clear
12:55 AM 75.2 °F 73.4 °F 94% 29.90 in 8.0 mi SSW 9.2 mph - 0.00 in   Clear
1:15 AM 75.2 °F 73.4 °F 94% 29.90 in 9.0 mi SSW 11.5 mph - 0.00 in   Clear
1:35 AM 75.2 °F 73.4 °F 94% 29.89 in 8.0 mi SSW 9.2 mph - 0.00 in   Clear
1:55 AM 75.2 °F 73.4 °F 94% 29.89 in 8.0 mi SSW 9.2 mph - 0.00 in   Clear
2:15 AM 75.2 °F 73.4 °F 94% 29.88 in 9.0 mi SSW 9.2 mph - 0.00 in   Clear
2:35 AM 75.2 °F 73.4 °F 94% 29.87 in 10.0 mi SSW 9.2 mph - 0.00 in   Clear
2:55 AM 75.2 °F 73.4 °F 94% 29.87 in 10.0 mi SSW 9.2 mph 16.1 mph 0.00 in   Clear
3:15 AM 75.2 °F 71.6 °F 89% 29.87 in 10.0 mi SW 9.2 mph - 0.00 in   Clear
3:35 AM 73.4 °F 71.6 °F 94% 29.86 in 10.0 mi SSW 11.5 mph - 0.00 in   Clear
3:55 AM 73.4 °F 71.6 °F 94% 29.86 in 10.0 mi SW 10.4 mph - 0.00 in   Clear
4:15 AM 73.4 °F 71.6 °F 94% 29.84 in 10.0 mi SW 10.4 mph 16.1 mph 0.00 in   Clear
4:35 AM 73.4 °F 71.6 °F 94% 29.84 in 10.0 mi SSW 10.4 mph 16.1 mph 0.00 in   Clear
4:55 AM 73.4 °F 71.6 °F 94% 29.83 in 10.0 mi SSW 11.5 mph - 0.00 in   Clear
5:15 AM 73.4 °F 71.6 °F 94% 29.83 in 10.0 mi SSW 10.4 mph - 0.00 in   Clear
5:35 AM 73.4 °F 71.6 °F 94% 29.83 in 10.0 mi SW 10.4 mph - 0.00 in   Clear
5:55 AM 73.4 °F 71.6 °F 94% 29.84 in 10.0 mi SSW 9.2 mph - 0.00 in   Clear
6:15 AM 71.6 °F 71.6 °F 100% 29.86 in 10.0 mi SSW 6.9 mph - 0.00 in   Clear
6:35 AM 71.6 °F 71.6 °F 100% 29.87 in 8.0 mi SSW 8.1 mph - 0.00 in   Clear
6:55 AM 71.6 °F 71.6 °F 100% 29.87 in 8.0 mi South 5.8 mph - 0.00 in   Clear
7:15 AM 71.6 °F 71.6 °F 100% 29.87 in 8.0 mi SSW 5.8 mph - 0.00 in   Scattered Clouds
7:35 AM 73.4 °F 71.6 °F 94% 29.88 in 8.0 mi South 6.9 mph - 0.00 in   Mostly Cloudy
7:55 AM 73.4 °F 71.6 °F 94% 29.88 in 10.0 mi SSW 5.8 mph - 0.00 in   Scattered Clouds
8:15 AM 75.2 °F 71.6 °F 89% 29.88 in 10.0 mi SSW 6.9 mph - 0.00 in   Scattered Clouds
8:35 AM 75.2 °F 71.6 °F 89% 29.88 in 10.0 mi SSW 6.9 mph - 0.00 in   Scattered Clouds
8:55 AM 75.2 °F 71.6 °F 89% 29.88 in 10.0 mi SSW 6.9 mph - 0.00 in   Mostly Cloudy
9:15 AM 75.2 °F 71.6 °F 89% 29.89 in 10.0 mi SW 6.9 mph - 0.00 in   Mostly Cloudy
9:35 AM 77.0 °F 71.6 °F 83% 29.89 in 10.0 mi SSW 9.2 mph - 0.00 in   Overcast
9:55 AM 77.0 °F 71.6 °F 83% 29.89 in 10.0 mi SW 10.4 mph - 0.00 in   Overcast
10:15 AM 68.0 °F 66.2 °F 94% 29.92 in 0.5 mi NNE 13.8 mph - 0.25 in   Overcast
10:35 AM 66.2 °F 66.2 °F 100% 29.93 in 6.0 mi ENE 4.6 mph - 0.34 in   Mostly Cloudy
10:55 AM 66.2 °F 66.2 °F 100% 29.92 in 4.0 mi SE 5.8 mph - 0.36 in   Overcast
11:15 AM 69.8 °F 69.8 °F 100% 29.91 in 10.0 mi South 4.6 mph - 0.00 in   Mostly Cloudy
11:35 AM 69.8 °F 69.8 °F 100% 29.90 in 1.8 mi SSE 3.5 mph - 0.10 in   Overcast
11:55 AM 69.8 °F 69.8 °F 100% 29.93 in 2.5 mi SSW 6.9 mph - 0.19 in   Overcast
12:15 PM 69.8 °F 69.8 °F 100% 29.92 in 5.0 mi South 5.8 mph - 0.00 in   Mostly Cloudy
12:35 PM 69.8 °F 69.8 °F 100% 29.91 in 4.0 mi SSW 5.8 mph - 0.02 in   Overcast
12:55 PM 69.8 °F 69.8 °F 100% 29.91 in 8.0 mi SSW 5.8 mph - 0.03 in   Scattered Clouds
1:15 PM 69.8 °F 69.8 °F 100% 29.91 in 10.0 mi SSW 8.1 mph - 0.00 in   Clear
1:35 PM 71.6 °F 71.6 °F 100% 29.91 in 10.0 mi SSW 6.9 mph - 0.00 in   Scattered Clouds
1:55 PM 71.6 °F 69.8 °F 94% 29.90 in 10.0 mi SSW 6.9 mph - 0.00 in   Partly Cloudy
2:15 PM 73.4 °F 69.8 °F 88% 29.88 in 10.0 mi SW 4.6 mph - 0.00 in   Scattered Clouds
2:35 PM 77.0 °F 69.8 °F 78% 29.88 in 10.0 mi WSW 8.1 mph - 0.00 in   Partly Cloudy
2:55 PM 78.8 °F 71.6 °F 78% 29.87 in 10.0 mi SSW 8.1 mph - 0.00 in   Scattered Clouds
3:15 PM 78.8 °F 69.8 °F 74% 29.87 in 10.0 mi WSW 8.1 mph - 0.00 in   Scattered Clouds
3:35 PM 78.8 °F 71.6 °F 78% 29.87 in 10.0 mi West 6.9 mph - 0.00 in   Partly Cloudy
3:55 PM 78.8 °F 69.8 °F 74% 29.87 in 10.0 mi WSW 8.1 mph - 0.00 in   Partly Cloudy
4:15 PM 77.0 °F 69.8 °F 78% 29.88 in 10.0 mi WSW 6.9 mph - 0.00 in   Mostly Cloudy
4:35 PM 77.0 °F 69.8 °F 78% 29.87 in 10.0 mi West 6.9 mph - 0.00 in   Mostly Cloudy
4:55 PM 77.0 °F 69.8 °F 78% 29.88 in 10.0 mi SW 3.5 mph - 0.00 in   Mostly Cloudy
5:15 PM 77.0 °F 69.8 °F 78% 29.88 in 10.0 mi SW 6.9 mph - 0.00 in   Partly Cloudy
5:35 PM 77.0 °F 69.8 °F 78% 29.88 in 10.0 mi SW 6.9 mph - 0.00 in   Clear
5:55 PM 77.0 °F 69.8 °F 78% 29.87 in 10.0 mi SW 6.9 mph - 0.00 in   Clear
6:15 PM 75.2 °F 68.0 °F 78% 29.88 in 10.0 mi WSW 6.9 mph - 0.00 in   Clear
6:35 PM 75.2 °F 69.8 °F 83% 29.88 in 10.0 mi SW 5.8 mph - 0.00 in   Clear
6:55 PM 75.2 °F 69.8 °F 83% 29.88 in 10.0 mi SSW 4.6 mph - 0.00 in   Clear
7:15 PM 75.2 °F 71.6 °F 89% 29.88 in 10.0 mi SSW 3.5 mph - 0.00 in   Clear
7:35 PM 75.2 °F 71.6 °F 89% 29.88 in 10.0 mi Calm Calm - 0.00 in   Clear
7:55 PM 73.4 °F 71.6 °F 94% 29.88 in 10.0 mi Calm Calm - 0.00 in   Clear
8:15 PM 73.4 °F 71.6 °F 94% 29.89 in 10.0 mi SSW 4.6 mph - 0.00 in   Clear
8:35 PM 73.4 °F 73.4 °F 100% 29.89 in 10.0 mi Calm Calm - 0.00 in   Clear
8:55 PM 73.4 °F 73.4 °F 100% 29.89 in 10.0 mi SSW 3.5 mph - 0.00 in   Clear
9:15 PM 71.6 °F 71.6 °F 100% 29.90 in 10.0 mi Calm Calm - 0.00 in   Partly Cloudy
9:35 PM 71.6 °F 71.6 °F 100% 29.91 in 10.0 mi Calm Calm - 0.00 in   Clear
9:55 PM 71.6 °F 71.6 °F 100% 29.92 in 10.0 mi Calm Calm - 0.00 in   Clear
10:15 PM 71.6 °F 71.6 °F 100% 29.93 in 10.0 mi South 4.6 mph - 0.00 in   Clear
10:35 PM 69.8 °F 69.8 °F 100% 29.93 in 10.0 mi Calm Calm - 0.00 in   Clear
10:55 PM 69.8 °F 69.8 °F 100% 29.93 in 10.0 mi Calm Calm - 0.00 in   Clear
11:15 PM 69.8 °F 69.8 °F 100% 29.93 in 8.0 mi SSW 4.6 mph - 0.00 in   Partly Cloudy
11:35 PM 69.8 °F 69.8 °F 100% 29.94 in 7.0 mi Calm Calm - 0.00 in   Partly Cloudy
11:55 PM 69.8 °F 69.8 °F 100% 29.93 in 7.0 mi Calm Calm - 0.00 in   Clear